Location: Frankfurt+(oder)
(51.7984°N, 12.2168°E)
Time: 03:21:35
(UTC+02:00)

ISS - Visible Passes

Search period start: 27 May 2018 00:00
Search period end: 06 June 2018 00:00
Orbit: 402 x 407 km, 51.6° (Epoch: 27 May)

Date Brightness Start Highest point End Pass type
(mag) Time Alt. Az. Time Alt. Az. Time Alt. Az.
27 May -4.0 00:21:59 10° W 00:25:15 68° SSW 00:26:26 35° ESE visible
27 May -1.3 01:58:47 10° W 01:59:03 11° W 01:59:03 11° W visible
27 May -3.9 21:53:18 10° WSW 21:56:36 77° SSE 21:59:52 10° E visible
27 May -3.9 23:29:47 10° W 23:33:04 81° S 23:35:43 15° ESE visible
28 May -2.5 01:06:23 10° W 01:08:21 26° WSW 01:08:21 26° WSW visible
28 May -3.9 22:37:34 10° W 22:40:52 89° S 22:44:08 10° E visible
29 May -3.5 00:14:05 10° W 00:17:14 45° SSW 00:17:42 42° S visible
29 May -3.8 23:21:50 10° W 23:25:05 62° SSW 23:27:06 21° ESE visible
30 May -1.6 00:58:45 10° W 00:59:44 15° WSW 00:59:44 15° WSW visible
30 May -3.9 22:29:36 10° W 22:32:52 77° SSW 22:36:08 10° ESE visible
31 May -2.8 00:06:13 10° W 00:09:06 28° SSW 00:09:09 28° SSW visible
31 May -3.3 23:13:52 10° W 23:16:58 40° SSW 23:18:36 22° SSE visible
01 Jun -3.6 22:21:34 10° W 22:24:48 56° SSW 22:28:00 10° ESE visible
01 Jun -1.9 23:58:38 10° WSW 00:00:41 16° SW 00:00:41 16° SW visible
02 Jun -2.4 23:06:00 10° W 23:08:43 24° SSW 23:10:11 18° S visible
03 Jun -2.9 22:13:33 10° W 22:16:35 35° SSW 22:19:37 10° SE visible
04 Jun -1.6 22:58:30 10° WSW 23:00:18 14° SW 23:01:53 11° S visible
